QPF
0.01 0.01 0.01 0.01 0.01 0.01 0.01 0.01 0.01 0.01 0.01 0.01 0.01 0.00 0.00 0.00 0.00 0.00 0.00 0.00 0.00 0.00 0.00 0.00 0.00 0.00 0.00 0.01 0.01 0.01 0.01 0.01 0.01 0.01 0.01 0.02 0.02 0.02
0.01 0.01 0.01 0.01 0.00 0.00 0.01 0.01 0.01 0.01 0.01 0.01 0.00 0.00 0.00 0.00 0.00 0.00 0.00 0.00 0.00 0.00 0.00 0.00 0.00 0.00 0.00 0.01 0.01 0.01 0.01 0.01 0.01 0.01 0.02 0.02 0.02 0.02
0.00 0.00 0.00 0.00 0.00 0.00 0.01 0.01 0.01 0.01 0.01 0.01 0.01 0.00 0.00 0.00 0.00 0.01 0.01 0.01 0.01 0.01 0.01 0.01 0.00 0.00 0.00 0.00 0.00 0.00 0.01 0.01 0.01 0.01 0.02 0.02 0.03 0.03
0.00 0.00 0.00 0.00 0.01 0.01 0.01 0.01 0.01 0.01 0.01 0.01 0.01 0.01 0.01 0.01 0.01 0.01 0.01 0.00 0.00 0.00 0.00 0.00 0.00 0.00 0.00 0.00 0.00 0.00 0.00 0.00 0.00 0.01 0.01 0.01 0.02 0.03
0.00 0.00 0.00 0.01 0.01 0.01 0.01 0.01 0.01 0.01 0.02 0.02 0.01 0.01 0.01 0.01 0.02 0.01 0.01 0.02 0.01 0.00 0.00 0.00 0.01 0.01 0.00 0.00 0.00 0.00 0.00 0.00 0.00 0.00 0.00 0.01 0.01 0.01
0.00 0.01 0.01 0.01 0.01 0.01 0.01 0.01 0.01 0.02 0.02 0.02 0.02 0.02 0.02 0.02 0.03 0.03 0.02 0.02 0.01 0.01 0.01 0.01 0.01 0.01 0.01 0.01 0.01 0.01 0.00 0.00 0.00 0.00 0.00 0.00 0.00 0.00
0.01 0.01 0.01 0.01 0.00 0.00 0.00 0.01 0.01 0.02 0.02 0.03 0.03 0.02 0.02 0.03 0.04 0.04 0.03 0.02 0.01 0.02 0.02 0.01 0.02 0.03 0.03 0.03 0.02 0.02 0.01 0.01 0.00 0.00 0.00 0.00 0.00 0.00
0.01 0.02 0.02 0.01 0.01 0.01 0.01 0.00 0.01 0.01 0.02 0.03 0.03 0.04 0.04 0.05 0.05 0.04 0.04 0.04 0.02 0.02 0.03 0.02 0.03 0.03 0.04 0.04 0.03 0.01 0.01 0.00 0.00 0.00 0.00 0.00 0.00 0.00
0.02 0.03 0.02 0.02 0.02 0.03 0.02 0.01 0.02 0.02 0.03 0.04 0.05 0.06 0.06 0.06 0.06 0.04 0.04 0.05 0.03 0.03 0.04 0.03 0.03 0.04 0.03 0.02 0.01 0.01 0.00 0.00 0.00 0.00 0.00 0.00 0.00 0.00
0.03 0.03 0.04 0.04 0.03 0.01 0.00 0.01 0.03 0.06 0.05 0.05 0.06 0.06 0.05 0.04 0.04 0.03 0.04 0.03 0.03 0.04 0.05 0.04 0.03 0.03 0.02 0.04 0.02 0.01 0.00 0.00 0.00 0.00 0.00 0.00 0.00 0.00
0.02 0.03 0.03 0.04 0.01 0.00 0.00 0.02 0.04 0.06 0.03 0.01 0.01 0.01 0.01 0.01 0.01 0.02 0.03 0.04 0.03 0.03 0.04 0.03 0.02 0.01 0.01 0.03 0.03 0.01 0.01 0.01 0.00 0.00 0.00 0.00 0.00 0.00
0.02 0.04 0.03 0.01 0.00 0.00 0.00 0.02 0.04 0.04 0.03 0.03 0.04 0.05 0.05 0.04 0.02 0.03 0.05 0.06 0.05 0.04 0.03 0.02 0.02 0.02 0.02 0.02 0.03 0.03 0.04 0.02 0.01 0.01 0.00 0.00 0.00 0.01
0.02 0.05 0.05 0.00 0.00 0.00 0.00 0.02 0.02 0.01 0.02 0.05 0.06 0.06 0.05 0.05 0.04 0.05 0.06 0.06 0.05 0.05 0.04 0.03 0.04 0.04 0.04 0.03 0.02 0.02 0.03 0.03 0.03 0.03 0.02 0.01 0.01 0.01
0.03 0.04 0.03 0.00 0.00 0.00 0.00 0.01 0.00 0.01 0.04 0.07 0.07 0.05 0.04 0.03 0.03 0.04 0.05 0.05 0.04 0.04 0.03 0.03 0.05 0.05 0.05 0.04 0.03 0.02 0.02 0.03 0.04 0.04 0.04 0.03 0.02 0.01
0.03 0.02 0.00 0.00 0.01 0.03 0.02 0.01 0.02 0.05 0.07 0.07 0.06 0.04 0.03 0.03 0.03 0.03 0.04 0.04 0.03 0.02 0.02 0.03 0.04 0.04 0.05 0.05 0.05 0.05 0.04 0.03 0.04 0.05 0.05 0.05 0.05 0.04
0.02 0.02 0.02 0.02 0.03 0.04 0.05 0.07 0.08 0.08 0.06 0.06 0.05 0.04 0.03 0.03 0.03 0.03 0.03 0.03 0.03 0.03 0.02 0.03 0.03 0.03 0.03 0.03 0.04 0.05 0.05 0.06 0.06 0.06 0.06 0.06 0.06 0.06
0.01 0.03 0.05 0.05 0.04 0.05 0.07 0.08 0.08 0.07 0.06 0.06 0.04 0.03 0.02 0.02 0.03 0.03 0.03 0.02 0.02 0.03 0.03 0.03 0.03 0.02 0.02 0.01 0.03 0.04 0.05 0.05 0.05 0.06 0.06 0.06 0.06 0.07
0.01 0.03 0.04 0.03 0.02 0.03 0.04 0.04 0.05 0.05 0.06 0.05 0.04 0.03 0.03 0.03 0.03 0.02 0.02 0.02 0.02 0.02 0.02 0.02 0.02 0.02 0.02 0.01 0.03 0.04 0.04 0.05 0.05 0.04 0.04 0.05 0.06 0.07
0.02 0.03 0.03 0.02 0.02 0.03 0.04 0.04 0.04 0.05 0.05 0.05 0.05 0.04 0.03 0.03 0.02 0.01 0.01 0.01 0.01 0.01 0.01 0.01 0.01 0.01 0.01 0.02 0.02 0.04 0.04 0.04 0.04 0.04 0.05 0.05 0.05 0.06
0.03 0.03 0.02 0.02 0.02 0.04 0.04 0.04 0.04 0.04 0.04 0.04 0.04 0.04 0.04 0.03 0.01 0.01 0.01 0.01 0.01 0.01 0.01 0.01 0.01 0.02 0.02 0.03 0.03 0.03 0.03 0.03 0.03 0.04 0.05 0.05 0.05 0.06
0.02 0.02 0.02 0.02 0.03 0.05 0.05 0.05 0.05 0.05 0.05 0.05 0.04 0.04 0.04 0.03 0.01 0.01 0.01 0.00 0.01 0.01 0.01 0.02 0.01 0.01 0.02 0.01 0.02 0.03 0.03 0.03 0.03 0.03 0.04 0.05 0.05 0.05
0.01 0.01 0.02 0.02 0.03 0.04 0.04 0.05 0.05 0.05 0.05 0.05 0.05 0.04 0.03 0.01 0.01 0.01 0.01 0.01 0.01 0.01 0.01 0.01 0.01 0.01 0.01 0.01 0.02 0.03 0.03 0.02 0.02 0.02 0.03 0.04 0.04 0.05
0.02 0.01 0.02 0.02 0.02 0.03 0.03 0.04 0.04 0.05 0.04 0.05 0.04 0.03 0.02 0.01 0.01 0.01 0.01 0.01 0.01 0.01 0.01 0.01 0.01 0.01 0.01 0.01 0.02 0.02 0.02 0.02 0.02 0.01 0.03 0.05 0.06 0.07
MSLP
1021.07 1021.29 1021.49 1021.62 1021.64 1021.53 1021.29 1020.93 1020.49 1020.01 1019.54 1019.11 1018.77 1018.52 1018.36 1018.27 1018.25 1018.25 1018.28 1018.30 1018.31 1018.31 1018.30 1018.28 1018.25 1018.21 1018.16 1018.09 1018.01 1017.90 1017.78 1017.64 1017.49 1017.35 1017.22 1017.10 1017.00 1016.92
1021.11 1021.26 1021.40 1021.49 1021.49 1021.39 1021.17 1020.85 1020.46 1020.03 1019.61 1019.22 1018.89 1018.63 1018.45 1018.32 1018.23 1018.16 1018.10 1018.03 1017.94 1017.85 1017.74 1017.63 1017.53 1017.42 1017.31 1017.21 1017.11 1017.01 1016.90 1016.80 1016.70 1016.61 1016.52 1016.44 1016.38 1016.32
1021.16 1021.23 1021.30 1021.34 1021.31 1021.21 1021.02 1020.75 1020.42 1020.06 1019.70 1019.35 1019.05 1018.80 1018.59 1018.41 1018.26 1018.11 1017.96 1017.79 1017.60 1017.40 1017.20 1016.99 1016.79 1016.60 1016.42 1016.27 1016.14 1016.02 1015.93 1015.85 1015.80 1015.76 1015.73 1015.71 1015.69 1015.67
1021.24 1021.22 1021.22 1021.21 1021.17 1021.07 1020.91 1020.69 1020.42 1020.12 1019.81 1019.51 1019.23 1018.97 1018.73 1018.51 1018.29 1018.06 1017.82 1017.55 1017.27 1016.97 1016.66 1016.35 1016.05 1015.78 1015.53 1015.31 1015.14 1015.00 1014.90 1014.84 1014.82 1014.83 1014.85 1014.89 1014.93 1014.96
1021.37 1021.29 1021.22 1021.16 1021.09 1020.99 1020.85 1020.67 1020.46 1020.21 1019.94 1019.66 1019.39 1019.11 1018.84 1018.56 1018.27 1017.96 1017.63 1017.28 1016.90 1016.52 1016.12 1015.73 1015.36 1015.00 1014.68 1014.40 1014.17 1014.00 1013.88 1013.82 1013.81 1013.85 1013.92 1014.01 1014.10 1014.18
1021.55 1021.41 1021.29 1021.19 1021.09 1020.99 1020.86 1020.70 1020.52 1020.29 1020.04 1019.77 1019.48 1019.17 1018.84 1018.50 1018.14 1017.75 1017.35 1016.93 1016.49 1016.04 1015.59 1015.15 1014.72 1014.31 1013.93 1013.59 1013.31 1013.09 1012.93 1012.85 1012.83 1012.87 1012.97 1013.09 1013.22 1013.34
1021.75 1021.56 1021.39 1021.26 1021.14 1021.02 1020.89 1020.74 1020.55 1020.33 1020.08 1019.78 1019.45 1019.09 1018.71 1018.30 1017.87 1017.43 1016.97 1016.50 1016.03 1015.56 1015.09 1014.62 1014.17 1013.73 1013.31 1012.93 1012.60 1012.32 1012.12 1011.98 1011.93 1011.95 1012.02 1012.15 1012.29 1012.44
1021.92 1021.70 1021.50 1021.33 1021.18 1021.04 1020.89 1020.72 1020.52 1020.28 1019.99 1019.66 1019.28 1018.87 1018.42 1017.96 1017.48 1016.99 1016.50 1016.02 1015.55 1015.08 1014.63 1014.18 1013.73 1013.29 1012.86 1012.46 1012.08 1011.74 1011.47 1011.27 1011.15 1011.10 1011.13 1011.22 1011.35 1011.51
1022.04 1021.79 1021.56 1021.36 1021.18 1021.00 1020.82 1020.61 1020.38 1020.09 1019.77 1019.39 1018.97 1018.51 1018.02 1017.51 1017.00 1016.49 1016.00 1015.53 1015.09 1014.66 1014.25 1013.84 1013.43 1013.02 1012.60 1012.17 1011.75 1011.36 1011.01 1010.72 1010.50 1010.36 1010.31 1010.34 1010.42 1010.55
1022.09 1021.82 1021.57 1021.33 1021.11 1020.88 1020.65 1020.40 1020.11 1019.79 1019.42 1019.01 1018.55 1018.06 1017.54 1017.02 1016.50 1016.00 1015.53 1015.10 1014.70 1014.34 1013.98 1013.64 1013.28 1012.90 1012.49 1012.06 1011.61 1011.15 1010.71 1010.32 1009.99 1009.74 1009.58 1009.51 1009.53 1009.61
1022.10 1021.82 1021.53 1021.25 1020.97 1020.69 1020.40 1020.09 1019.76 1019.39 1018.99 1018.55 1018.08 1017.58 1017.07 1016.56 1016.07 1015.60 1015.17 1014.79 1014.45 1014.14 1013.85 1013.57 1013.26 1012.92 1012.53 1012.08 1011.59 1011.07 1010.55 1010.05 1009.60 1009.23 1008.95 1008.78 1008.71 1008.74
1022.11 1021.80 1021.48 1021.15 1020.81 1020.46 1020.11 1019.74 1019.35 1018.95 1018.53 1018.09 1017.63 1017.16 1016.68 1016.21 1015.76 1015.34 1014.96 1014.63 1014.34 1014.09 1013.85 1013.61 1013.34 1013.02 1012.64 1012.19 1011.66 1011.09 1010.49 1009.89 1009.33 1008.84 1008.44 1008.17 1008.02 1007.98
1022.16 1021.82 1021.46 1021.06 1020.65 1020.23 1019.80 1019.37 1018.95 1018.52 1018.10 1017.67 1017.25 1016.82 1016.40 1015.99 1015.60 1015.24 1014.91 1014.63 1014.38 1014.16 1013.96 1013.74 1013.49 1013.19 1012.81 1012.34 1011.78 1011.16 1010.50 1009.82 1009.17 1008.58 1008.09 1007.72 1007.49 1007.39
1022.26 1021.89 1021.47 1021.01 1020.52 1020.02 1019.52 1019.04 1018.57 1018.13 1017.72 1017.32 1016.94 1016.58 1016.23 1015.89 1015.57 1015.27 1014.99 1014.74 1014.52 1014.32 1014.13 1013.92 1013.67 1013.36 1012.98 1012.50 1011.93 1011.28 1010.57 1009.85 1009.13 1008.48 1007.92 1007.48 1007.19 1007.03
1022.41 1021.99 1021.51 1020.98 1020.41 1019.84 1019.28 1018.74 1018.25 1017.80 1017.40 1017.05 1016.73 1016.43 1016.15 1015.89 1015.63 1015.38 1015.14 1014.92 1014.71 1014.51 1014.31 1014.10 1013.84 1013.53 1013.14 1012.66 1012.09 1011.44 1010.72 1009.98 1009.24 1008.56 1007.96 1007.48 1007.13 1006.93
1022.57 1022.10 1021.56 1020.96 1020.33 1019.68 1019.06 1018.49 1017.97 1017.52 1017.14 1016.83 1016.56 1016.33 1016.12 1015.92 1015.71 1015.51 1015.30 1015.09 1014.89 1014.69 1014.48 1014.25 1013.99 1013.67 1013.29 1012.83 1012.27 1011.64 1010.95 1010.23 1009.51 1008.82 1008.22 1007.72 1007.34 1007.10
1022.69 1022.17 1021.58 1020.92 1020.23 1019.54 1018.88 1018.27 1017.74 1017.30 1016.94 1016.66 1016.43 1016.25 1016.09 1015.93 1015.77 1015.60 1015.41 1015.21 1015.01 1014.80 1014.58 1014.35 1014.09 1013.78 1013.42 1012.99 1012.49 1011.91 1011.27 1010.60 1009.92 1009.27 1008.68 1008.18 1007.79 1007.51
1022.74 1022.17 1021.53 1020.84 1020.12 1019.40 1018.72 1018.11 1017.58 1017.14 1016.79 1016.53 1016.33 1016.17 1016.04 1015.91 1015.77 1015.61 1015.43 1015.24 1015.04 1014.83 1014.61 1014.38 1014.14 1013.86 1013.54 1013.16 1012.71 1012.21 1011.65 1011.05 1010.44 1009.85 1009.30 1008.82 1008.42 1008.12
1022.70 1022.11 1021.44 1020.74 1020.01 1019.29 1018.62 1018.01 1017.49 1017.05 1016.72 1016.46 1016.26 1016.11 1015.98 1015.85 1015.71 1015.55 1015.37 1015.18 1014.98 1014.77 1014.57 1014.36 1014.14 1013.90 1013.62 1013.31 1012.94 1012.51 1012.04 1011.53 1011.01 1010.49 1010.00 1009.55 1009.16 1008.83
1022.60 1021.99 1021.33 1020.64 1019.93 1019.25 1018.60 1018.02 1017.51 1017.09 1016.75 1016.48 1016.27 1016.10 1015.94 1015.79 1015.62 1015.44 1015.25 1015.05 1014.85 1014.65 1014.46 1014.27 1014.08 1013.88 1013.66 1013.41 1013.12 1012.78 1012.40 1011.98 1011.54 1011.10 1010.67 1010.26 1009.90 1009.57
1022.47 1021.88 1021.25 1020.59 1019.94 1019.31 1018.71 1018.17 1017.68 1017.27 1016.92 1016.63 1016.38 1016.16 1015.95 1015.75 1015.54 1015.33 1015.11 1014.89 1014.68 1014.48 1014.30 1014.13 1013.97 1013.81 1013.64 1013.44 1013.22 1012.95 1012.65 1012.32 1011.96 1011.60 1011.24 1010.89 1010.57 1010.26
1022.37 1021.81 1021.23 1020.64 1020.06 1019.50 1018.96 1018.46 1018.01 1017.60 1017.23 1016.90 1016.60 1016.31 1016.04 1015.77 1015.49 1015.22 1014.96 1014.71 1014.49 1014.28 1014.10 1013.95 1013.81 1013.68 1013.54 1013.39 1013.21 1013.01 1012.77 1012.51 1012.24 1011.95 1011.66 1011.38 1011.10 1010.84
1022.34 1021.82 1021.31 1020.80 1020.30 1019.81 1019.34 1018.89 1018.46 1018.05 1017.66 1017.28 1016.92 1016.55 1016.20 1015.84 1015.49 1015.16 1014.85 1014.56 1014.31 1014.09 1013.90 1013.75 1013.62 1013.50 1013.38 1013.26 1013.12 1012.95 1012.77 1012.57 1012.36 1012.14 1011.92 1011.71 1011.50 1011.30
Thickness
5583 5579 5574 5570 5567 5564 5560 5556 5552 5551 5550 5548 5544 5541 5537 5532 5526 5521 5517 5513 5509 5505 5502 5499 5496 5493 5490 5488 5487 5486 5486 5486 5487 5488 5490 5493 5496 5500
5567 5564 5559 5555 5551 5547 5544 5541 5538 5535 5534 5532 5528 5524 5520 5515 5511 5507 5503 5500 5497 5494 5491 5488 5485 5482 5479 5477 5475 5475 5474 5474 5474 5475 5476 5478 5481 5485
5550 5547 5543 5539 5535 5531 5528 5525 5522 5519 5517 5516 5512 5509 5505 5501 5498 5494 5491 5489 5486 5484 5481 5478 5475 5473 5471 5469 5467 5466 5465 5464 5463 5464 5464 5466 5469 5472
5534 5530 5527 5523 5519 5515 5512 5509 5506 5503 5500 5499 5496 5493 5490 5487 5485 5483 5480 5478 5476 5474 5473 5471 5469 5466 5464 5463 5461 5459 5458 5456 5455 5455 5455 5456 5458 5460
5518 5515 5511 5508 5504 5501 5496 5494 5491 5489 5486 5483 5482 5480 5478 5476 5474 5472 5470 5468 5466 5466 5465 5465 5463 5461 5459 5458 5456 5454 5453 5451 5450 5449 5448 5448 5449 5451
5503 5500 5497 5494 5490 5487 5483 5481 5478 5475 5473 5471 5470 5469 5468 5466 5464 5462 5461 5460 5458 5458 5457 5456 5456 5455 5454 5453 5451 5450 5448 5447 5445 5444 5443 5443 5443 5444
5488 5486 5484 5481 5478 5473 5470 5467 5463 5461 5460 5459 5459 5459 5458 5457 5454 5453 5452 5452 5452 5451 5450 5450 5449 5449 5448 5447 5447 5445 5444 5443 5441 5440 5439 5438 5438 5439
5473 5472 5470 5469 5466 5462 5458 5455 5452 5450 5449 5448 5448 5448 5449 5448 5447 5446 5444 5444 5446 5446 5444 5444 5443 5442 5442 5442 5441 5440 5438 5437 5436 5435 5434 5434 5433 5434
5459 5458 5457 5456 5452 5449 5447 5445 5445 5444 5442 5441 5441 5442 5443 5443 5441 5441 5440 5438 5438 5439 5438 5438 5438 5436 5436 5436 5435 5434 5432 5431 5430 5429 5429 5429 5429 5429
5446 5445 5443 5441 5437 5434 5434 5435 5437 5438 5438 5439 5439 5439 5440 5439 5437 5437 5436 5436 5436 5435 5434 5432 5432 5430 5431 5431 5430 5428 5427 5426 5425 5424 5424 5425 5425 5426
5433 5433 5431 5429 5424 5423 5424 5427 5430 5432 5434 5436 5437 5437 5438 5438 5436 5434 5433 5432 5432 5431 5429 5426 5426 5425 5426 5426 5425 5423 5422 5421 5421 5421 5421 5421 5422 5422
5421 5421 5420 5418 5417 5416 5417 5420 5423 5427 5429 5432 5435 5437 5438 5438 5436 5433 5432 5429 5428 5427 5426 5421 5420 5418 5420 5421 5420 5419 5418 5418 5418 5418 5419 5419 5419 5419
5411 5412 5413 5412 5412 5413 5414 5417 5421 5422 5426 5430 5433 5435 5436 5436 5435 5434 5431 5428 5425 5422 5421 5418 5416 5414 5411 5413 5416 5416 5415 5415 5415 5416 5417 5417 5417 5417
5404 5406 5408 5409 5411 5414 5416 5420 5421 5423 5427 5430 5433 5434 5435 5434 5433 5432 5431 5428 5425 5422 5419 5416 5413 5410 5408 5409 5410 5412 5413 5413 5413 5414 5415 5416 5417 5416
5401 5403 5406 5409 5412 5416 5419 5421 5423 5425 5428 5430 5432 5433 5433 5433 5432 5431 5430 5428 5425 5422 5420 5417 5413 5409 5406 5405 5406 5407 5409 5411 5411 5412 5413 5414 5415 5415
5399 5402 5406 5410 5414 5417 5420 5424 5426 5427 5429 5430 5432 5433 5433 5432 5431 5429 5427 5425 5423 5422 5420 5417 5414 5410 5405 5404 5404 5405 5407 5408 5410 5411 5411 5412 5413 5413
5395 5401 5407 5411 5415 5419 5422 5425 5428 5430 5431 5433 5433 5433 5432 5431 5429 5428 5425 5424 5421 5419 5418 5417 5415 5411 5406 5403 5404 5404 5405 5407 5407 5408 5410 5410 5410 5410
5397 5402 5406 5411 5414 5418 5422 5426 5429 5431 5433 5434 5434 5434 5432 5431 5429 5427 5424 5422 5419 5418 5416 5415 5414 5413 5409 5407 5401 5402 5404 5405 5406 5407 5408 5408 5407 5407
5400 5403 5406 5410 5414 5418 5423 5426 5430 5433 5435 5435 5436 5435 5434 5432 5429 5427 5425 5422 5420 5418 5416 5415 5413 5411 5408 5406 5405 5401 5402 5404 5405 5406 5406 5405 5404 5404
5402 5404 5407 5412 5416 5421 5425 5429 5432 5435 5436 5437 5437 5437 5435 5434 5431 5429 5426 5423 5421 5419 5417 5415 5413 5410 5407 5404 5403 5402 5401 5402 5404 5405 5405 5405 5404 5404
5403 5406 5410 5415 5419 5423 5427 5431 5434 5436 5437 5438 5439 5438 5437 5436 5434 5431 5429 5424 5423 5421 5419 5416 5415 5413 5411 5409 5406 5404 5402 5401 5401 5402 5404 5406 5406 5406
5406 5410 5414 5418 5422 5426 5430 5433 5436 5437 5438 5439 5440 5440 5439 5438 5436 5434 5432 5430 5427 5425 5423 5421 5419 5417 5414 5412 5409 5407 5405 5404 5403 5403 5403 5404 5404 5404
5410 5413 5417 5422 5426 5429 5432 5435 5436 5437 5438 5438 5439 5440 5440 5439 5437 5436 5434 5433 5431 5429 5427 5425 5423 5421 5419 5416 5414 5411 5410 5408 5406 5405 5404 5403 5404 5404